Location: Mohawk View
(42.7837°N, 73.7885°W)
Time: 13:08:34
(UTC+00:00)

Cosmos-2242 - Pass Details

Date: 17 June 2021
Orbit: 590 x 617 km, 82.5° (Epoch: 26 July)

Event Time Altitude Azimuth Distance (km) Brightness Sun altitude
Rises 05:41:26 0° 350° (N) 2,899 7.7 -23.0°
Reaches altitude 10° 05:43:40 10° 348° (NNW) 1,989 6.6 -22.9°
Maximum altitude 05:48:04 74° 264° (W) 645 3.0 -22.8°
Enters shadow 05:48:18 72° 234° (SW) 653 2.9 -22.7°
